Tracking 31027 objects as of 19-Jul-2025
HD Live streaming from Space Station
objects crossing your sky now

CZ-4B DEB

Track CZ-4B DEB now!
10-day predictions


NORAD ID: 37573
Int'l Code: 2008-026E
Perigee: 803.5 km
Apogee: 1,125.2 km
Inclination: 98.8 °
Period: 104.2 minutes
Semi major axis: 7335 km
RCS: 0.0013 m2 (small)
Launch date: May 27, 2008
Source: People's Republic of China (PRC)
Launch site: Taiyaun Space Center, China (TSC)

Note: This is SATELLITE DEBRIS
Your satellite tracking list
KL-BETA B
Track 1 satellite(s)




NASA's NSSDC Master Catalog

Two Line Element Set (TLE):
1 37573U 08026E   25197.96062881  .00000315  00000-0  27721-3 0  9996
2 37573  98.7696 255.5314 0219243 279.2364 206.8734 13.81887980845641
Source of the keplerian elements: AFSPC